User: anonymous   Login
Location: Cactus School
(34.5700°N, 118.0931°W)
Time: 08:30:18
(UTC-07:00)
Language:

Envisat - Orbit

View from above orbital plane
View from above orbital plane
View from above satellite
View from above satellite

Ground track
Ground track

The orbit data is extracted from the following two-line orbital elements,

1 27386U 02009A   18176.16581199 -.00000012  00000-0  95600-5 0  9999
2 27386  98.1834 209.8508 0001258  95.2373 308.8452 14.37924462854670
Epoch (UTC): 25 June 2018 03:58:46
Eccentricity: 0.0001258
inclination: 98.1834°
perigee height: 764 km
apogee height: 766 km
right ascension of ascending node: 209.8508°
argument of perigee: 95.2373°
revolutions per day: 14.37924462
mean anomaly at epoch: 308.8452°
orbit number at epoch: 85467

The dashed part of the orbit path shows where the satellite is in the earth's shadow,  

DLR